FW8334 Weather Reports


Display with metric or nautical units.
time (UTC)temp
F
wind
direction
speed
MPH
gust
MPH
rain 1hr
in
rain 24hr
in
rain mn
in
humidity
%
barometer
mb
20260509143046 61 0 0.0 2.0 0.00 0.00 0.00 92 1012.4
20260509141540 61 274 1.0 3.0 0.00 0.00 0.00 92 1012.5
20260509140038 61 269 0.0 2.0 0.00 0.00 0.00 92 1012.3
20260509134541 61 0 0.0 0.0 0.00 0.00 0.00 92 1012.4
20260509133047 61 0 0.0 2.0 0.00 0.00 0.00 92 1012.3
20260509131539 61 274 0.0 2.0 0.00 0.00 0.00 92 1012.2
20260509130041 61 0 0.0 2.0 0.00 0.00 0.00 92 1012.1
20260509124547 61 0 0.0 3.0 0.00 0.00 0.00 92 1012.1
20260509123042 61 225 0.0 3.0 0.00 0.00 0.00 92 1012.1
20260509121551 61 0 0.0 2.0 0.00 0.00 0.00 92 1011.9
20260509120042 61 0 1.0 3.0 0.00 0.00 0.00 92 1012.0
20260509114555 61 278 1.0 3.0 0.00 0.00 0.00 92 1012.1
20260509113036 61 0 0.0 2.0 0.00 0.00 0.00 92 1012.0
20260509111534 61 255 0.0 2.0 0.00 0.00 0.00 92 1012.0
20260509110041 61 0 0.0 1.0 0.00 0.00 0.00 92 1012.0
20260509104540 61 0 0.0 2.0 0.00 0.00 0.00 92 1012.2
20260509103039 61 0 1.0 4.0 0.00 0.00 0.00 91 1012.2
20260509101538 61 0 0.0 3.0 0.00 0.00 0.00 91 1012.3
20260509100035 61 0 0.0 3.0 0.00 0.00 0.00 91 1012.2
20260509094547 61 0 0.0 3.0 0.00 0.00 0.00 91 1012.3
20260509093041 61 0 0.0 1.0 0.00 0.00 0.00 91 1012.4
20260509091543 61 0 0.0 0.0 0.00 0.00 0.00 91 1012.5
20260509090056 61 0 0.0 1.0 0.00 0.00 0.00 91 1012.7
20260509084542 61 0 0.0 1.0 0.00 0.00 0.00 91 1012.8
20260509083048 61 0 0.0 2.0 0.00 0.00 0.00 91 1012.8
20260509081542 61 0 0.0 2.0 0.00 0.00 0.00 91 1013.0
20260509080056 61 0 0.0 3.0 0.00 0.00 0.00 91 1013.1
20260509074540 61 0 0.0 3.0 0.00 0.00 0.00 90 1013.1
20260509073034 61 0 0.0 2.0 0.00 0.00 0.00 90 1013.3
20260509071543 61 0 0.0 2.0 0.00 0.00 0.00 90 1013.3
20260509070046 61 0 0.0 1.0 0.00 0.00 0.00 90 1013.5
20260509064539 61 240 1.0 3.0 0.00 0.00 0.00 90 1013.6
20260509063044 61 0 0.0 3.0 0.00 0.00 0.00 89 1013.5
20260509061545 62 0 0.0 1.0 0.00 0.00 0.00 89 1013.6
20260509060042 62 0 0.0 1.0 0.00 0.00 0.00 90 1013.6
20260509054542 61 0 0.0 1.0 0.00 0.00 0.00 89 1013.6
20260509053044 61 32 0.0 2.0 0.00 0.00 0.00 89 1013.8
20260509051544 62 0 0.0 1.0 0.00 0.00 0.00 89 1013.7
20260509050050 61 275 0.0 1.0 0.00 0.00 0.00 89 1013.8
20260509044542 62 0 0.0 1.0 0.00 0.00 0.00 89 1013.7
20260509043046 62 0 0.0 2.0 0.00 0.00 0.00 88 1013.6
20260509041541 62 348 0.0 2.0 0.00 0.00 0.00 88 1013.5
20260509040040 62 322 0.0 2.0 0.00 0.00 0.00 88 1013.5
20260509034536 62 257 0.0 3.0 0.00 0.00 0.00 88 1013.4
20260509033057 62 0 0.0 3.0 0.00 0.00 0.00 88 1013.2
20260509031541 62 0 0.0 3.0 0.00 0.00 0.00 87 1013.2
20260509030040 63 275 0.0 4.0 0.00 0.00 0.00 87 1013.2
20260509024540 62 232 0.0 3.0 0.00 0.00 0.00 87 1013.0
20260509023044 63 284 0.0 4.0 0.00 0.00 0.00 86 1012.8
20260509021542 63 244 0.0 3.0 0.00 0.00 0.00 85 1012.8
20260509020040 64 0 0.0 3.0 0.00 0.00 0.00 83 1012.6
20260509014539 65 0 0.0 4.0 0.00 0.00 0.00 81 1012.5
20260509013042 67 0 1.0 4.0 0.00 0.00 0.00 79 1012.4
20260509011536 67 287 2.0 6.0 0.00 0.00 0.00 78 1012.3
20260509010040 68 279 1.0 5.0 0.00 0.00 0.00 77 1012.3
20260509004553 69 265 1.0 6.0 0.00 0.00 0.00 76 1012.3
20260509003042 70 327 1.0 4.0 0.00 0.00 0.00 74 1012.2
20260509001538 70 262 0.0 7.0 0.00 0.00 0.00 74 1012.3
20260509000046 69 306 2.0 10.0 0.00 0.00 0.00 75 1012.4
20260508234542 70 274 1.0 7.0 0.00 0.00 0.00 74 1012.5
20260508233041 71 271 2.0 8.0 0.00 0.00 0.00 72 1012.7
20260508231545 72 0 2.0 6.0 0.00 0.00 0.00 70 1012.9
20260508230036 71 243 2.0 8.0 0.00 0.00 0.00 72 1013.0
20260508224558 70 238 2.0 9.0 0.00 0.00 0.00 73 1013.2
20260508223040 72 255 4.0 9.0 0.00 0.00 0.00 71 1013.2
20260508221548 72 5 2.0 8.0 0.00 0.00 0.00 72 1013.3
20260508220040 72 300 2.0 10.0 0.00 0.00 0.00 71 1013.5
20260508214540 72 196 2.0 9.0 0.00 0.00 0.00 70 1013.6
20260508213044 73 229 4.0 9.0 0.00 0.00 0.00 69 1013.5
20260508211548 73 290 3.0 8.0 0.00 0.00 0.00 68 1013.6
20260508210041 74 253 3.0 9.0 0.00 0.00 0.00 68 1013.5
20260508204541 74 235 2.0 8.0 0.00 0.00 0.00 67 1013.6
20260508203039 75 335 1.0 10.0 0.00 0.00 0.00 66 1013.5
20260508201541 75 352 2.0 8.0 0.00 0.00 0.00 67 1013.6
20260508200047 74 276 2.0 4.0 0.00 0.00 0.00 67 1013.6
20260508194541 73 216 2.0 8.0 0.00 0.00 0.00 70 1013.9
20260508193049 73 252 3.0 7.0 0.00 0.00 0.00 70 1014.1
20260508191540 75 275 2.0 8.0 0.00 0.00 0.00 68 1014.2
20260508190039 73 171 2.0 7.0 0.00 0.00 0.00 69 1014.4
20260508184543 71 275 1.0 7.0 0.00 0.00 0.00 73 1014.5
20260508183053 0 0.0 0.0 0.00 0.00 0.00 1014.6
20260508181548 0 0.0 0.0 0.00 0.00 0.00 1014.7
20260508180037 68 247 1.0 6.0 0.00 0.00 0.00 79 1014.9
20260508174540 65 0 0.0 3.0 0.00 0.00 0.00 82 1014.9
20260508173042 64 0 0.0 3.0 0.00 0.00 0.00 84 1015.1
20260508171547 64 284 1.0 3.0 0.00 0.00 0.00 84 1015.0
20260508170039 63 0 0.0 2.0 0.00 0.00 0.00 85 1015.1
20260508164539 63 0 0.0 3.0 0.00 0.00 0.00 86 1015.1
20260508163039 62 0 0.0 0.0 0.00 0.00 0.00 87 1015.1
20260508161543 62 0 0.0 3.0 0.00 0.00 0.00 88 1015.3
20260508160041 61 237 0.0 2.0 0.00 0.00 0.00 89 1015.2
20260508154539 61 0 0.0 2.0 0.00 0.00 0.00 89 1015.3
20260508153040 61 0 0.0 3.0 0.00 0.00 0.00 89 1015.3
20260508151544 61 128 0.0 2.0 0.00 0.00 0.00 89 1015.4
20260508150041 61 0 0.0 2.0 0.00 0.00 0.00 89 1015.3
20260508144547 61 315 0.0 2.0 0.00 0.00 0.00 89 1015.2